www.pogodaiklimat.ru

Погода и климат >> Архив погоды >> Канада >> Нунавут >> Остров Хат


ПОГОДА на Острове Хат

  • Прогноз погоды на Острове Хат
  • Монитор погоды на Острове Хат

АРХИВ ПОГОДЫ на Острове Хат

Время (UTC), дата Ветер
(напр.,м/с)
 
Видим.   Явления Облачность Т
(С)
Тd
(С)
f
(%)
Тe
(С)
Тes
(С)
Комфортность P
(гПа)
Po
(гПа)
Тmin
(С)
Tmax
(С)
R
(мм)
R24
(мм)
S
(см)
03 12.03 ЮВ 5 н/о ясно -25.5 -27.8 81 -37 -37 опасность
обморожения
1002.8 997.9
06 12.03 ЮВ 5 н/о ясно -26.6 -28.9 81 -38 -38 опасность
обморожения
1003.6 998.7 -26.6 -17.3
09 12.03 ЮВ 5 н/о ясно -27.6 -30.0 80 -40 -40 опасность
обморожения
1003.5 998.6
12 12.03 ЮВ 6 н/о ясно -28.4 -30.9 79 -41 -41 опасность
обморожения
1004.9 1000.0
15 12.03 ЮВ 6 н/о ясно -27.6 -30.2 78 -40 -40 опасность
обморожения
1006.4 1001.5
18 12.03 ЮВ 7 н/о ясно -25.3 -28.2 77 -38 -38 опасность
обморожения
1006.0 1001.1
21 12.03 ЮВ 6 н/о 10/10 100 м
[]
-22.4 -24.3 84 -34 -34 опасность
обморожения
1006.0 1001.1
00 13.03 Ю 5 н/о 10/10 100 м
[]
-21.5 -23.4 85 -32 -32 опасность
обморожения
1007.6 1002.7
03 13.03 ЮВ 4 н/о 10/10 300 м
[]
-21.7 -23.7 84 -31 -31 опасность
обморожения
1010.3 1005.4
06 13.03 Ю 4 н/о 10/10 100 м
[]
-22.3 -24.4 83 -32 -32 опасность
обморожения
1011.1 1006.2 -28.4 -21.2
09 13.03 ЮЗ 3 н/о 10/10 50 м
[]
-22.1 -24.1 84 -30 -30 1012.2 1007.3
12 13.03 ЮВ 4 н/о 10/10 100 м
[]
-22.7 -24.8 83 -32 -32 опасность
обморожения
1011.4 1006.5
15 13.03 Ю 4 н/о 10/10 100 м
[]
-22.7 -24.8 83 -32 -32 опасность
обморожения
1013.3 1008.4
18 13.03 В 3 н/о 10/10 100 м
[]
-22.1 -24.2 83 -29 -29 1015.4 1010.5
21 13.03 СВ 4 н/о 10/10 100 м
[]
-21.5 -23.5 84 -30 -30 1019.0 1014.1
00 14.03 С 3 н/о 10/10 1000 м
[]
-21.8 -23.8 84 -30 -30 1021.1 1016.1
03 14.03 С 6 н/о 10/10 300 м
[]
-22.9 -25.0 83 -34 -34 опасность
обморожения
1022.2 1017.2
06 14.03 С 6 н/о 10/10 600 м
[]
-23.8 -26.0 82 -36 -36 опасность
обморожения
1022.9 1017.9 -23.8 -20.8
09 14.03 С 6 н/о 10/10 1500 м
[]
-24.0 -26.2 82 -36 -36 опасность
обморожения
1026.3 1021.3
12 14.03 С 7 н/о 10/10 1000 м
[]
-24.2 -26.5 81 -37 -37 опасность
обморожения
1025.6 1020.6
15 14.03 С 8 н/о 10/10 1500 м
[]
-24.0 -26.2 82 -37 -37 опасность
обморожения
1028.2 1023.2
18 14.03 С 7 н/о 9/9 1000 м
[]
-24.7 -27.0 81 -37 -37 опасность
обморожения
1026.9 1021.9
21 14.03 С 6 н/о ясно -27.4 -29.9 79 -40 -40 опасность
обморожения
1027.2 1022.2
00 15.03 С 6 н/о ясно -29.9 -32.6 77 -43 -43 опасность
обморожения
1029.4 1024.3
03 15.03 С 6 н/о ясно -32.4 -35.2 76 -47 -47 опасность
обморожения
1029.5 1024.4
06 15.03 С 5 н/о ясно -33.4 -36.3 75 -47 -47 опасность
обморожения
1029.4 1024.3 -33.5 -22.8
09 15.03 С 6 н/о ясно -34.2 -37.2 74 -49 -49 опасность
обморожения
1029.9 1024.8
12 15.03 С 4 н/о ясно -34.1 -37.1 74 -46 -46 опасность
обморожения
1030.5 1025.4
15 15.03 С 4 н/о ясно -33.5 -36.6 73 -45 -44 опасность
обморожения
1029.5 1024.4
18 15.03 С 3 н/о ясно -26.0 -29.4 73 -34 -32 опасность
обморожения
1029.5 1024.4
21 15.03 С 4 н/о ясно -24.5 -28.3 71 -34 -33 опасность
обморожения
1031.4 1026.3
00 16.03 СВ 3 н/о ясно -27.7 -31.1 73 -36 -36 опасность
обморожения
1030.6 1025.5
03 16.03 В 2 н/о ясно -29.5 -32.2 77 -37 -37 опасность
обморожения
1031.1 1026.0
06 16.03 ЮВ 3 н/о ясно -30.6 -33.3 77 -40 -40 опасность
обморожения
1031.0 1025.9 -34.7 -24.2
09 16.03 Ю 5 н/о ясно -31.3 -33.9 78 -44 -44 опасность
обморожения
1029.7 1024.6
12 16.03 ЮВ 5 н/о ясно -32.1 -34.9 76 -45 -45 опасность
обморожения
1028.6 1023.5
15 16.03 ЮВ 7 н/о ясно -32.0 -34.9 75 -47 -47 опасность
обморожения
1027.5 1022.4
18 16.03 ЮВ 6 н/о ясно -26.9 -30.1 74 -40 -39 опасность
обморожения
1027.1 1022.0
21 16.03 ЮВ 9 н/о 3/3 1500 м
[]
-26.0 -29.5 72 -41 -41 опасность
обморожения
1025.1 1020.0
00 17.03 ЮВ 9 н/о 10/10 1000 м
[]
-24.8 -27.6 77 -40 -40 опасность
обморожения
1023.1 1018.0
03 17.03 ЮВ 9 н/о 10/10 600 м
[]
-23.4 -26.3 77 -37 -37 опасность
обморожения
1021.6 1016.6
06 17.03 ЮВ 8 н/о 10/10 600 м
[]
-22.2 -24.3 83 -35 -35 опасность
обморожения
1018.6 1013.6 -33.8 -22.2
09 17.03 ЮВ 8 н/о 9/9 100 м
[]
-21.9 -24.0 83 -35 -35 опасность
обморожения
1019.2 1014.2
12 17.03 ЮВ 7 н/о 10/10 100 м
[]
-21.8 -24.0 82 -34 -34 опасность
обморожения
1020.9 1015.9
15 17.03 В 8 н/о 10/10 1000 м
[]
-21.6 -24.0 81 -35 -35 опасность
обморожения
1020.8 1015.8
18 17.03 В 8 н/о 10/10 1500 м
[]
-21.0 -23.8 78 -34 -34 опасность
обморожения
1020.8 1015.8
21 17.03 В 8 н/о 10/10 1000 м
[]
-20.8 -23.3 80 -33 -33 опасность
обморожения
1022.7 1017.7
00 18.03 СВ 6 н/о ясно -24.0 -26.5 80 -36 -36 опасность
обморожения
1025.3 1020.3
03 18.03 В 5 н/о ясно -27.5 -29.7 81 -39 -39 опасность
обморожения
1025.8 1020.8
06 18.03 В 4 н/о ясно -28.9 -31.4 79 -39 -39 опасность
обморожения
1023.1 1018.1 -29.1 -19.9
09 18.03 ЮВ 4 н/о 10/0
[]
-29.5 -31.9 80 -41 -41 опасность
обморожения
1023.9 1018.9
12 18.03 ЮВ 7 н/о 10/10 50 м
[]
-27.7 -30.2 79 -41 -41 опасность
обморожения
1021.2 1016.2
15 18.03 ЮВ 7 н/о 9/9 50 м
[]
-27.8 -30.4 78 -41 -41 опасность
обморожения
1016.1 1011.1
18 18.03 ЮВ 8 н/о 10/10 100 м
[]
-22.6 -24.8 82 -36 -36 опасность
обморожения
1014.7 1009.7
21 18.03 ЮВ 9 н/о ясно -19.3 -21.3 84 -32 -32 опасность
обморожения
1010.0 1005.1
00 19.03 В 11 н/о 3/3 100 м
[]
-19.1 -21.0 85 -33 -33 опасность
обморожения
1007.4 1002.5

 

Местоположение метеостанции Остров Хат (Нунавут, Канада): широта 68.32 долгота -100.00 высота над уровнем моря 36 м.

В архиве по умолчанию представлена погода на Острове Хат за последнюю неделю. Архивные данные за месяц целиком и за предыдущие месяцы, начиная с января 2011 года, Вы можете получить, выбрав интересующий диапазон дат из раскрывающегося списка и нажав кнопку "Ввод!".


*Определитесь, кто Вы:
робот инопланетянин человек

Внимание! Время в таблицах - всемирное. Для получения местного времени необходимо прибавить поправку, которая равна -6 ч.

Смотрите также архив погоды в соседних городах и на ближайших метеорологических станциях:

Погода в Джойа Хейвен (Нунавут, Канада) (173 км)
Погода в Кеймбридж-Бее (Нунавут, Канада) (223 км)
Погода в Кембридж Бэй (Нунавут, Канада) (223 км)
Погода в Шеперд-Бее (Нунавут, Канада) (273 км)
Погода в Талойоаке (Нунавут, Канада) (291 км)
Погода в Глеичене (Альберта, Канада) (291 км)
Погода на Мысе Пил-Вест (Нунавут, Канада) (325 км)
Погода на Озере Робертсон (Нунавут, Канада) (373 км)
Погода в Кугааруке (Нунавут, Канада) (417 км)
Погода в Кам Фор (Нунавут, Канада) (421 км)

Пояснения к столбцам:

Ветер - указаны скорость ветра в м/с - средняя за 10 мин, порывы в срок и между сроками (в фигурных скобках) и направление, откуда дует ветер: С - северный, СВ - северо-восточный, В - восточный, ЮВ - юго-восточный, Ю - южный, ЮЗ - юго-западный, З - западный, СЗ - северо-западный.
Видимость - горизонтальная дальность видимости в метрах или километрах. При видимости от 1 до 10 км при отсутствии осадков обычно наблюдается дымка, при ухудшении видимости до 1 км и менее - туман. В сухую погоду видимость может ухудшаться дымом, пылью или мглою.
Явления - указаны атмосферные явления, наблюдавшиеся в срок или в последний час перед сроком; фигурными скобками обозначены явления, наблюдавшиеся между сроками (за 1-3 часа до срока); квадратными скобками обозначены град или гололедные отложения с указанием их диаметра в мм.
Облачность - указаны через наклонную черту общая и нижняя облачность в баллах и высота нижней границы облаков в метрах; квадратными скобками обозначены формы облаков: Ci - перистые, Cs - перисто-слоистые, Cc - перисто-кучевые, Ac - высококучевые, As - высокослоистые, Sc - слоисто-кучевые, Ns - слоисто-дождевые, Cu - кучевые, Cb - кучево-дождевые. Подробнее классификацию облаков см. в Атласе облаков (PDF).
T - Температура воздуха - температура, измеренная на высоте 2 м над землей.
Td - Температура точки росы - температура, при понижении до которой содержащийся в воздухе водяной пар достигнет насыщения.
f - Относительная влажность воздуха - влажноcть воздуха, измеренная на высоте 2 м над землей.
Te - Эффективная температура - температура, которую ощущает одетый по сезону человек в тени. Характеристика душности погоды. При расчете учитывается влияние влажности воздуха и скорости ветра на теплоощущения человека.
Tes - Эффективная температура на солнце - температура, которую ощущает человек, с поправкой на солнечный нагрев. Характеристика знойности погоды. Зависит от высоты солнца над горизонтом, облачности и скорости ветра. Ночью, в пасмурную погоду, а также при ветре 12 м/с и более поправка равна нулю.
P - Атмосферное давление - приведенное к уровню моря атмосферное давление.
Po - Атмосферное давление - измеренное на уровне метеостанции атмосферное давление.
Tmin - Минимальная температура - минимум температуры воздуха на высоте 2 м над землей.
Tmax - Максимальная температура - максимум температуры воздуха на высоте 2 м над землей.
R - Количество осадков - Количество выпавших осадков за период времени, мм. При наведении курсора мыши на число - период времени, за который выпало указанное количество осадков.
R24 - Количество осадков - Количество выпавших осадков за 24 часа, мм.
S - Снежный покров - Высота снежного покрова, см. При наведении курсора мыши на число - состояние снежного покрова и степень покрытия местности в баллах.